TimeEST,TemperatureF,Dew PointF,Humidity,Sea Level PressureIn,VisibilityMPH,Wind Direction,Wind SpeedMPH,Gust SpeedMPH,PrecipitationIn,Events,Conditions,WindDirDegrees,DateUTC
12:53 AM,15.1,3.0,59,30.58,10.0,ENE,15.0,-,N/A,,Overcast,60,2012-12-01 05:53:00
1:53 AM,14.0,1.9,59,30.58,10.0,ENE,13.8,-,N/A,,Overcast,70,2012-12-01 06:53:00
2:53 AM,15.1,1.9,56,30.59,10.0,ENE,15.0,23.0,N/A,,Overcast,60,2012-12-01 07:53:00
3:53 AM,16.0,3.9,59,30.58,10.0,ENE,15.0,-,N/A,,Overcast,70,2012-12-01 08:53:00
4:53 AM,15.1,3.0,59,30.56,10.0,ENE,10.4,-,N/A,,Overcast,70,2012-12-01 09:53:00
5:32 AM,15.8,3.2,58,30.55,10.0,ENE,11.5,-,N/A,,Overcast,60,2012-12-01 10:32:00
5:53 AM,16.0,3.9,59,30.57,10.0,ENE,12.7,-,N/A,,Overcast,70,2012-12-01 10:53:00
6:53 AM,16.0,5.0,62,30.58,10.0,East,12.7,-,N/A,,Overcast,80,2012-12-01 11:53:00
7:53 AM,16.0,5.0,62,30.57,10.0,East,11.5,-,N/A,,Overcast,80,2012-12-01 12:53:00
8:53 AM,16.0,6.1,65,30.57,10.0,ENE,11.5,21.9,N/A,,Overcast,60,2012-12-01 13:53:00
9:53 AM,17.1,7.0,65,30.57,10.0,ENE,13.8,-,N/A,,Overcast,70,2012-12-01 14:53:00
10:53 AM,18.0,7.0,62,30.54,10.0,ENE,10.4,-,N/A,,Overcast,70,2012-12-01 15:53:00
11:37 AM,19.4,8.6,63,30.48,10.0,East,11.5,-,N/A,,Overcast,80,2012-12-01 16:37:00
11:53 AM,18.0,8.1,65,30.51,10.0,East,10.4,-,N/A,,Overcast,80,2012-12-01 16:53:00
12:03 PM,19.4,8.6,63,30.48,10.0,ENE,8.1,-,N/A,,Overcast,70,2012-12-01 17:03:00
12:53 PM,21.2,12.2,68,30.46,10.0,ENE,10.4,-,N/A,,Overcast,70,2012-12-01 17:53:00
1:53 PM,21.0,12.9,71,30.49,10.0,ENE,11.5,-,N/A,,Overcast,70,2012-12-01 18:53:00
2:53 PM,19.9,10.9,68,30.46,10.0,ENE,10.4,-,N/A,,Overcast,70,2012-12-01 19:53:00
3:53 PM,19.9,12.0,71,30.46,10.0,ENE,10.4,-,N/A,,Overcast,70,2012-12-01 20:53:00
4:53 PM,19.4,12.2,74,30.42,10.0,ENE,10.4,-,N/A,,Overcast,60,2012-12-01 21:53:00
5:53 PM,19.9,12.9,74,30.43,10.0,East,9.2,-,N/A,,Overcast,80,2012-12-01 22:53:00
6:53 PM,21.0,14.0,74,30.42,10.0,ENE,10.4,-,N/A,,Overcast,70,2012-12-01 23:53:00
7:41 PM,21.2,14.0,74,30.38,10.0,East,9.2,-,N/A,,Overcast,80,2012-12-02 00:41:00
7:53 PM,21.0,14.0,74,30.39,10.0,East,8.1,-,N/A,,Overcast,80,2012-12-02 00:53:00
8:53 PM,21.0,14.0,74,30.37,10.0,East,8.1,-,N/A,,Overcast,100,2012-12-02 01:53:00
9:53 PM,21.9,15.1,75,30.35,10.0,ENE,5.8,-,N/A,,Overcast,70,2012-12-02 02:53:00
10:53 PM,23.0,16.0,74,30.32,10.0,East,3.5,-,N/A,,Overcast,80,2012-12-02 03:53:00
11:53 PM,24.1,18.0,77,30.30,10.0,East,3.5,-,N/A,,Overcast,100,2012-12-02 04:53:00